Wind_Speed
10 9 9 9 9 9 10 10 10 10 9 9 8 8 7 6 5 5 4 4 4 4 5 5 6 6 7 7 8 8 8 8 7 7 7 6 6 6 6 6 6 6 5
11 11 10 10 11 11 11 11 11 10 10 9 8 7 7 6 6 6 6 6 6 6 6 7 7 8 9 9 10 11 11 12 12 11 11 10 9 9 9 10 9 9 8
12 12 11 12 12 12 13 12 12 10 9 9 8 8 8 8 8 8 7 6 6 7 7 7 8 9 10 12 13 13 14 14 14 15 15 15 15 14 13 13 13 13 12
13 13 13 13 13 13 13 13 12 12 11 10 10 9 9 9 9 8 8 8 8 7 8 10 11 13 15 17 18 19 19 19 20 19 19 19 19 19 19 18 16 16 16
15 14 14 15 15 15 15 15 14 13 12 11 10 10 10 10 10 10 10 10 9 10 12 14 16 18 19 20 20 21 21 22 22 22 22 22 23 23 23 23 23 21 19
19 18 17 17 17 16 15 14 14 14 13 12 11 12 11 12 12 12 12 12 13 14 16 18 20 21 22 22 23 23 24 24 25 25 25 26 25 25 26 27 27 26 25
24 22 21 20 19 17 17 17 16 15 14 14 13 13 13 14 14 14 14 15 16 17 18 20 22 22 23 23 24 25 26 27 28 28 29 30 31 31 30 30 29 30 30
30 29 25 23 21 21 20 19 18 17 16 16 15 16 16 17 16 16 17 18 19 20 22 23 24 25 26 28 29 30 31 31 31 32 32 32 33 34 35 35 35 34 34
36 36 34 30 26 23 21 20 19 19 19 19 19 18 17 18 18 19 20 21 23 24 26 28 29 30 31 33 34 35 35 35 35 35 35 35 36 36 37 38 38 38 38
42 42 41 41 32 30 29 25 22 21 21 21 21 19 19 20 19 24 23 25 26 30 32 32 34 34 36 38 39 40 39 39 38 37 36 36 37 37 37 37 38 40 40
44 40 40 49 47 45 43 32 21 24 23 21 22 21 22 22 23 25 27 33 31 34 35 35 36 37 40 41 42 43 40 40 40 39 37 36 36 36 37 37 37 39 41
46 42 44 41 31 34 24 21 25 24 25 25 26 25 26 26 27 29 32 34 36 41 37 38 40 41 43 45 45 44 44 42 39 37 33 31 32 33 34 35 37 37 39
43 36 40 24 24 26 28 25 25 26 27 28 27 29 30 31 32 32 34 34 39 41 41 41 43 42 45 47 47 46 43 39 36 34 32 30 31 32 33 33 34 35 37
13 12 18 20 29 30 28 28 27 28 29 30 30 31 33 34 35 36 37 40 42 42 46 43 46 44 46 48 46 44 41 39 35 34 33 32 30 28 27 27 28 29 33
11 11 14 23 29 29 29 30 34 31 30 31 32 33 34 38 43 43 44 41 42 43 43 46 51 46 46 44 42 40 38 38 37 37 35 33 30 28 27 28 28 28 29
14 15 19 24 29 29 35 35 35 39 33 32 35 36 41 39 42 45 43 44 44 45 47 47 50 51 44 39 37 36 37 38 38 36 35 34 33 31 30 30 31 31 32
15 19 24 28 30 31 27 25 27 29 30 33 36 39 41 43 45 45 47 46 46 47 49 48 49 47 41 37 35 36 37 38 37 35 34 35 35 34 32 32 33 33 34
10 11 19 22 20 21 24 28 28 31 34 38 41 42 45 45 47 49 48 47 49 49 50 51 46 42 39 36 36 35 36 37 37 36 35 35 35 35 32 29 29 30 32
13 14 17 19 22 25 28 32 34 36 39 42 45 45 47 49 48 49 50 51 49 49 47 47 44 39 38 37 36 36 36 37 36 36 35 34 33 30 28 25 24 25 26
16 18 21 25 29 32 35 37 39 41 43 46 48 50 50 51 51 50 51 50 45 44 43 44 42 37 37 36 37 36 37 37 34 34 31 29 29 27 26 24 22 22 22
21 24 28 31 34 37 40 43 45 48 50 52 54 56 56 54 51 48 44 42 41 41 40 40 40 38 35 35 34 35 36 32 29 29 27 27 28 26 25 24 22 22 22
23 26 30 32 35 38 41 43 46 48 49 49 48 46 44 44 42 41 39 38 38 39 38 37 39 39 35 35 34 32 31 27 25 27 26 27 28 26 25 24 22 22 23
23 24 25 27 30 32 34 36 37 38 39 39 39 38 37 37 37 37 36 36 36 35 37 39 41 37 38 33 32 31 28 27 26 25 28 25 25 25 25 25 24 22 23
19 20 22 24 26 28 29 31 32 33 33 33 34 35 35 34 35 36 36 36 36 36 37 39 38 35 34 30 31 28 25 23 22 23 26 26 22 21 22 24 24 24 25
16 18 19 20 21 24 24 26 27 28 29 29 30 31 33 32 33 35 37 37 36 34 33 31 31 31 30 28 27 25 27 24 28 29 28 30 28 28 28 28 28 31 31
17 18 19 20 20 20 20 20 22 23 23 24 25 27 28 28 27 30 32 33 31 28 29 28 29 30 30 27 25 26 25 27 31 34 32 33 31 32 30 28 28 29 32
Wind_Direction
210 215 221 218 211 207 200 189 185 182 180 178 181 184 184 190 201 213 227 241 260 277 287 291 294 291 290 291 291 294 296 298 301 302 299 297 290 275 254 249 245 237 241
214 215 215 214 212 208 203 200 196 195 194 195 197 199 204 210 219 227 233 241 249 260 268 276 283 289 291 291 291 289 287 285 282 281 281 282 280 272 263 255 250 246 239
218 218 216 216 211 207 206 203 202 205 208 209 215 219 219 225 230 235 241 249 254 261 268 279 286 291 296 296 294 291 290 285 280 278 276 273 273 272 268 261 254 247 244
215 223 225 223 216 210 208 207 207 209 213 219 224 230 234 235 237 242 247 252 258 267 273 279 288 291 292 292 290 288 285 284 282 279 275 272 270 269 269 268 263 257 251
218 226 226 222 215 210 209 209 210 215 218 224 231 237 242 242 242 245 250 253 258 269 281 288 293 297 298 297 294 291 289 287 284 282 278 273 269 265 263 263 264 264 260
223 222 224 219 212 213 212 217 218 219 223 230 236 244 246 248 247 246 250 259 270 279 288 293 296 298 298 297 296 293 291 289 285 283 280 277 273 270 266 263 261 260 260
226 228 215 215 215 211 214 218 219 222 225 230 237 242 248 252 253 257 261 266 276 283 290 295 297 299 295 289 288 286 287 288 286 284 282 279 276 272 267 264 260 258 257
231 232 217 208 206 212 214 218 222 225 228 233 238 243 250 257 261 265 270 275 280 287 294 300 300 296 294 292 291 289 289 289 288 286 284 281 276 272 270 266 261 258 255
237 234 220 202 198 207 212 218 224 228 233 237 239 245 252 258 266 268 273 277 283 290 294 296 298 297 295 295 294 293 291 289 288 287 284 281 277 274 270 266 262 257 254
235 234 226 210 200 201 206 215 222 230 235 240 244 250 256 261 267 277 278 282 287 290 292 294 297 298 297 297 297 296 295 294 291 288 285 281 277 273 271 268 265 262 255
260 262 244 236 225 206 198 199 210 233 240 245 252 255 260 266 271 274 281 285 286 288 290 293 295 296 298 299 300 297 296 292 290 287 286 284 281 276 272 269 266 264 260
266 247 249 239 248 223 203 216 216 232 242 246 251 257 262 265 268 271 274 279 284 290 290 291 294 295 298 299 299 296 296 294 291 289 284 278 275 274 271 269 267 265 263
245 256 243 243 222 211 222 218 224 234 242 248 253 258 262 265 266 268 274 277 284 288 287 288 290 295 298 298 297 295 294 290 288 284 283 280 278 276 275 273 269 265 263
167 162 183 207 205 215 224 228 230 239 246 250 253 258 262 266 268 271 274 279 285 282 284 286 291 296 297 296 294 293 291 289 288 287 286 286 283 278 274 270 268 266 265
164 251 226 221 213 220 229 237 239 235 249 254 260 262 264 267 273 275 281 282 282 283 286 292 296 296 295 292 288 286 285 287 289 287 285 284 282 278 275 271 268 266 264
202 217 230 238 236 230 252 249 254 259 248 255 261 264 271 270 273 279 281 283 282 284 286 291 293 296 293 287 283 281 283 287 286 283 281 280 279 279 277 274 271 267 264
233 223 236 248 253 245 245 254 260 263 258 259 262 266 270 275 279 280 281 283 284 286 289 290 292 290 288 285 282 280 285 286 285 284 281 280 280 280 278 275 270 266 263
233 247 244 251 257 265 268 270 273 271 266 264 267 270 274 278 279 280 282 283 286 289 291 291 287 286 285 282 281 281 284 286 285 282 280 279 279 279 277 274 270 265 260
245 246 251 261 267 268 269 271 271 270 268 269 272 275 278 280 283 283 285 288 289 290 287 285 285 283 283 283 284 286 287 287 285 282 280 280 277 276 274 272 267 264 261
258 261 264 266 269 271 273 274 274 274 275 276 278 280 281 283 284 287 287 286 285 282 282 283 283 283 282 284 287 290 291 290 286 283 280 274 271 270 272 269 264 261 259
271 269 270 271 272 273 275 276 277 278 279 279 280 281 281 282 281 279 279 280 280 281 281 282 284 283 282 284 290 291 289 284 279 277 275 271 269 271 269 265 263 258 257
275 274 272 272 273 274 275 275 276 278 278 279 280 281 282 284 281 280 280 280 280 282 281 281 282 283 286 289 287 284 281 278 272 271 271 272 273 272 269 265 261 258 256
279 279 280 280 279 280 280 281 283 283 285 285 284 283 282 282 281 280 280 278 276 277 278 279 279 284 284 284 281 279 278 276 272 269 269 264 269 271 272 269 265 260 257
287 286 286 285 286 285 284 282 281 282 284 284 285 285 284 284 283 283 281 279 278 277 277 277 280 280 278 278 275 276 275 274 273 263 268 269 266 261 264 271 269 267 267
299 297 297 297 297 292 289 290 290 288 287 287 285 284 284 284 283 283 281 279 278 279 278 279 278 277 275 273 270 266 266 265 267 268 265 273 270 268 264 263 263 267 269
316 313 315 312 306 301 298 299 300 299 300 300 297 296 294 292 288 283 282 282 282 284 281 280 277 275 276 275 272 266 264 263 263 267 270 273 271 268 267 262 264 264 265
Height
3164 3165 3165 3166 3166 3167 3168 3169 3170 3171 3172 3173 3174 3174 3174 3174 3174 3175 3175 3175 3176 3176 3176 3176 3176 3175 3175 3175 3175 3174 3174 3174 3173 3173 3172 3172 3171 3171 3171 3172 3172 3172 3172
3162 3163 3163 3164 3165 3165 3167 3168 3169 3170 3171 3172 3173 3174 3174 3174 3174 3174 3174 3174 3174 3174 3174 3174 3174 3174 3174 3173 3173 3173 3172 3172 3172 3171 3171 3171 3170 3170 3170 3169 3170 3170 3171
3160 3161 3161 3162 3163 3164 3165 3166 3168 3169 3171 3172 3172 3173 3173 3173 3173 3173 3173 3173 3173 3173 3173 3173 3173 3172 3172 3172 3171 3170 3170 3169 3169 3169 3169 3169 3168 3168 3168 3168 3167 3167 3168
3158 3159 3159 3160 3162 3163 3164 3165 3167 3168 3168 3169 3171 3172 3171 3171 3171 3171 3172 3172 3172 3172 3172 3171 3171 3170 3169 3169 3168 3167 3166 3166 3166 3166 3166 3165 3166 3166 3165 3165 3165 3165 3165
3156 3157 3157 3158 3159 3161 3162 3163 3164 3166 3166 3167 3168 3169 3170 3170 3169 3169 3169 3170 3170 3170 3169 3169 3168 3167 3166 3165 3164 3163 3163 3163 3162 3162 3161 3160 3160 3160 3161 3161 3162 3163 3163
3152 3153 3154 3155 3156 3159 3160 3162 3162 3163 3164 3165 3166 3167 3167 3168 3167 3166 3166 3167 3167 3167 3167 3166 3164 3164 3163 3162 3161 3159 3158 3157 3156 3156 3155 3155 3155 3155 3155 3156 3157 3157 3158
3149 3150 3150 3152 3155 3156 3158 3159 3160 3160 3161 3162 3162 3163 3164 3165 3164 3164 3164 3163 3163 3163 3162 3162 3160 3159 3159 3158 3156 3154 3153 3153 3151 3150 3149 3148 3148 3148 3149 3149 3150 3151 3152
3144 3145 3146 3148 3150 3152 3155 3157 3158 3158 3158 3159 3160 3159 3160 3162 3161 3161 3161 3160 3159 3158 3158 3157 3156 3154 3152 3151 3150 3148 3147 3146 3146 3144 3143 3142 3141 3140 3140 3141 3142 3143 3144
3138 3139 3140 3142 3143 3147 3150 3153 3155 3155 3155 3156 3157 3158 3158 3159 3158 3157 3156 3155 3154 3153 3152 3151 3150 3148 3146 3143 3142 3140 3139 3137 3136 3136 3135 3134 3132 3132 3131 3130 3131 3133 3134
3129 3130 3131 3134 3136 3138 3141 3146 3150 3151 3151 3151 3153 3153 3153 3155 3154 3153 3151 3150 3148 3146 3144 3143 3142 3140 3137 3135 3133 3131 3129 3127 3126 3125 3125 3124 3122 3121 3121 3120 3120 3121 3123
3123 3126 3125 3126 3127 3125 3128 3135 3141 3146 3148 3148 3149 3149 3149 3148 3149 3150 3146 3141 3143 3140 3138 3136 3134 3132 3130 3127 3125 3121 3121 3118 3116 3114 3115 3114 3113 3111 3110 3110 3111 3111 3111
3116 3115 3117 3122 3126 3128 3133 3133 3135 3140 3143 3143 3144 3144 3144 3143 3142 3143 3141 3137 3134 3129 3131 3129 3126 3124 3121 3118 3115 3112 3109 3107 3105 3104 3103 3103 3102 3101 3100 3100 3100 3100 3100
3108 3111 3112 3115 3120 3126 3128 3130 3133 3135 3137 3138 3138 3138 3137 3136 3136 3136 3133 3132 3127 3123 3122 3121 3117 3116 3112 3107 3104 3100 3097 3096 3094 3093 3093 3093 3093 3092 3091 3091 3090 3091 3090
3106 3108 3109 3113 3118 3122 3124 3126 3128 3130 3131 3131 3130 3130 3130 3128 3128 3127 3125 3123 3119 3117 3111 3112 3107 3107 3104 3099 3095 3091 3087 3084 3084 3082 3082 3082 3082 3082 3082 3082 3082 3082 3083
3107 3108 3109 3114 3117 3119 3120 3121 3122 3122 3123 3124 3124 3123 3122 3121 3119 3117 3116 3114 3111 3108 3105 3101 3094 3098 3095 3091 3086 3083 3079 3075 3074 3072 3072 3072 3072 3072 3073 3073 3073 3074 3074
3107 3108 3110 3113 3114 3115 3115 3115 3116 3116 3116 3117 3117 3115 3114 3113 3110 3107 3105 3103 3101 3098 3094 3093 3086 3084 3082 3082 3078 3075 3072 3068 3065 3064 3063 3062 3062 3062 3064 3064 3064 3065 3065
3106 3108 3109 3109 3109 3111 3110 3110 3111 3110 3110 3109 3108 3107 3105 3102 3099 3096 3094 3091 3089 3086 3083 3082 3078 3074 3073 3070 3068 3067 3064 3060 3056 3054 3053 3052 3052 3052 3053 3053 3053 3054 3054
3105 3106 3107 3108 3107 3106 3107 3107 3105 3103 3102 3101 3099 3097 3094 3091 3088 3084 3081 3080 3078 3074 3072 3069 3067 3064 3062 3060 3058 3058 3056 3051 3047 3045 3044 3043 3042 3042 3043 3043 3043 3043 3043
3103 3104 3104 3104 3104 3103 3102 3100 3097 3095 3093 3091 3089 3086 3082 3078 3076 3073 3070 3068 3066 3062 3061 3057 3055 3055 3053 3050 3048 3048 3046 3041 3038 3035 3034 3034 3032 3033 3033 3033 3034 3034 3034
3101 3100 3100 3100 3098 3096 3093 3091 3088 3086 3083 3081 3077 3074 3071 3068 3064 3062 3058 3055 3054 3051 3049 3046 3044 3044 3043 3042 3039 3037 3034 3031 3029 3026 3026 3025 3024 3024 3024 3025 3025 3026 3026
3096 3095 3094 3092 3090 3087 3084 3082 3078 3075 3073 3070 3066 3063 3059 3056 3054 3050 3048 3045 3044 3041 3038 3036 3034 3033 3035 3033 3031 3027 3024 3023 3021 3018 3018 3017 3016 3017 3017 3017 3018 3018 3019
3090 3089 3087 3084 3082 3078 3076 3072 3069 3065 3063 3059 3054 3052 3048 3044 3042 3040 3038 3035 3034 3030 3029 3026 3024 3025 3025 3023 3021 3018 3016 3016 3015 3011 3011 3010 3008 3010 3010 3010 3011 3012 3012
3084 3081 3078 3076 3073 3069 3067 3063 3059 3055 3051 3048 3045 3042 3039 3036 3033 3030 3028 3026 3025 3023 3020 3018 3015 3017 3014 3014 3010 3009 3009 3007 3006 3005 3003 3003 3002 3003 3002 3003 3004 3005 3006
3077 3074 3071 3069 3065 3062 3058 3055 3051 3047 3044 3040 3036 3033 3029 3027 3024 3020 3018 3016 3015 3014 3011 3008 3007 3006 3005 3005 3003 3002 3001 2999 2998 2998 2995 2996 2997 2998 2997 2996 2997 2998 2998
3070 3067 3064 3061 3057 3053 3050 3045 3042 3038 3035 3032 3029 3025 3021 3019 3016 3012 3008 3007 3006 3004 3002 3000 2997 2996 2996 2995 2995 2995 2993 2992 2990 2990 2989 2988 2990 2989 2989 2990 2991 2990 2991
3062 3059 3056 3053 3049 3046 3041 3038 3034 3030 3027 3023 3019 3014 3011 3009 3007 3004 3000 2997 2997 2996 2993 2991 2988 2987 2987 2987 2986 2984 2984 2982 2982 2980 2981 2981 2981 2980 2980 2982 2983 2983 2982